{"data":{"norad_id":54065,"intl_designator":"2022-136Q","name":"STARLINK-5187","alt_names":[],"object_type":"PAYLOAD","status":"ACTIVE","operator":null,"country":"US","launch_date":"2022-10-20","launch_site_code":"AFETR","launch_vehicle":null,"mission":null,"orbit_class":"UNKNOWN","rcs_meters":null,"size_class":null,"mass_kg":null,"dimensions":null,"purposes":["comms"],"wikipedia_slug":null,"has_3d_model":false,"image_url":null,"decayed_at":null,"tle_current":{"epoch":"2026-05-24T21:59:06.681120Z","epoch_age_seconds":78936,"freshness":"FRESH","line1":"1 54065U 22136Q   26144.91604955  .00001921  00000+0  13873-3 0  9997","line2":"2 54065  53.2134   1.7758 0001238  65.7318 294.3803 15.08849204198358","mean_motion":15.08849204,"eccentricity":0.0001238,"inclination_deg":53.2134,"raan_deg":1.7758,"arg_perigee_deg":65.7318,"mean_anomaly_deg":294.3803,"bstar":0.00013873,"rev_number":19835,"period_min":95.436972507426,"perigee_km":538.85882605192,"apogee_km":540.57168627054,"semimajor_km":6917.8522561612,"source":"CELESTRAK","updated_at":"2026-05-25T13:38:17.650083Z"}}}